Regional Weather Roundup
Issued by NWS Jackson, KY

Home | Current Version | Previous Version | Text Only | Print | Product List | Glossary Off
Versions: 1 2 3 4 5 6 7 8 9 10 11 12 13 14 15 16 17 18 19 20 21 22 23 24 25 26 27 28

000
ASUS43 KJKL 221810
RWRJKL

EAST KENTUCKY HOURLY WEATHER ROUNDUP
NATIONAL WEATHER SERVICE JACKSON KY
200 PM EDT FRI SEP 22 2017

NOTE: "FAIR" INDICATES FEW OR NO CLOUDS BELOW 12,000 FEET WITH
NO SIGNIFICANT WEATHER AND/OR OBSTRUCTIONS TO VISIBILITY.

* THESE REPORTS ARE NOT UNDER NWS QUALITY CONTROL AND MAY NOT
  REPORT WEATHER SUCH AS PRECIPITATION AND FOG.

KYZ079-080-083-085-087-088-110-112-115-119-120-221900
...EASTERN KENTUCKY...

CITY           SKY/WX    TMP DP  RH WIND       PRES   REMARKS
JACKSON        MOSUNNY   81  67  62 CALM      30.12F
6HR MIN TEMP:  67; 6HR MAX TEMP:  84;

LONDON         MOSUNNY   85  65  51 E5        30.10F
6HR MIN TEMP:  64; 6HR MAX TEMP:  85;

SOMERSET*      MOSUNNY   82  63  51 CALM      30.10F
MONTICELLO*    MOSUNNY   85  67  54 VRB6      30.10F
6HR MIN TEMP:  60; 6HR MAX TEMP:  85;

WILLIAMSBURG*  PTCLDY    84  68  58 NE6       30.09F
MIDDLESBORO*   SUNNY     84  63  48 NW3       30.09F
6HR MIN TEMP:  63; 6HR MAX TEMP:  84;

HARLAN APT*    MOCLDY    86  61  42 CALM      30.11F
PIKE CO APT*     N/A     81  63  54 N5        30.13F
BIG SANDY APT* PTCLDY    82  66  58 NE6       30.12F
6HR MIN TEMP:  63; 6HR MAX TEMP:  84;

MOREHEAD APT*  PTCLDY    82  63  51 NE7       30.13F
$$

KYZ035-036-041-042-044-050-067-078-099-221900
...CENTRAL KENTUCKY...

CITY           SKY/WX    TMP DP  RH WIND       PRES   REMARKS
MT STERLING*   MOSUNNY   84  64  51 SE5       30.12F
FLEMING/MASON* SUNNY     84  64  50 CALM      30.12F
DANVILLE*      MOSUNNY   82  64  54 E6        30.11F
LEXINGTON      MOSUNNY   86  67  52 VRB5      30.10F
6HR MIN TEMP:  65; 6HR MAX TEMP:  86;

FRANKFORT      MOSUNNY   88  64  44 VRB7      30.09F
6HR MIN TEMP:  65; 6HR MAX TEMP:  89;

LOUISVILLE     MOSUNNY   89  67  47 SE5       30.07F HX  92
6HR MIN TEMP:  73; 6HR MAX TEMP:  90;

LEBANON*         N/A     86  66  51 E3        30.09F
GLASGOW*       MOSUNNY   88  66  48 E6        30.08F HX  90
BOWLING GREEN  SUNNY     88  68  51 NE10      30.06F HX  91
6HR MIN TEMP:  67; 6HR MAX TEMP:  88;

$$

KYZ091>093-OHZ055-061-077-WVZ005-015-034-035-042-221900
...SOUTHERN OHIO/WEST VIRGINIA...

CITY           SKY/WX    TMP DP  RH WIND       PRES   REMARKS
COVINGTON      MOSUNNY   88  70  55 VRB3      30.10F HX  93
COLUMBUS       MOSUNNY   87  66  49 SE3       30.10F
DAYTON         MOSUNNY   86  67  52 SE6       30.11F
WILMINGTON     SUNNY     87  68  52 CALM      30.10F HX  90
HUNTINGTON     SUNNY     84  65  52 N7        30.10F
CHARLESTON     MOSUNNY   84  64  50 E8        30.11F
PINEVILLE*     MOSUNNY   81  64  57 MISG      30.17F
BECKLEY        SUNNY     80  59  48 VRB6      30.16F
BLUEFIELD      PTSUNNY   76  57  51 VRB3      30.18F
LOGAN CO APT*    N/A     81  64  57 CALM      30.13F
$$

VAZ002-007-008-TNZ017-027-036-066-071-221900
...SOUTHWEST VIRGINIA/EAST TENNESSEE...

CITY           SKY/WX    TMP DP  RH WIND       PRES   REMARKS
WISE*          SUNNY     81  55  41 NE9       30.19S
JONESVILLE*      N/A     86  63  45 CALM      30.12F
ABINGDON*      MOSUNNY   84  62  46 SE3       30.14F
BRISTOL        MOSUNNY   84  63  49 CALM      30.11F
MORRISTOWN*    PTCLDY    86  64  48 NW6       30.08F
SEVIERVILLE*   CLEAR     88  63  42 NW6       30.06F
KNOXVILLE      MOSUNNY   84  64  50 NW6       30.07F
LAFOLLETTE*    CLEAR     84  66  54 VRB5      30.12F
OAK RIDGE      SUNNY     85  64  49 CALM      30.08F
CROSSVILLE     CLOUDY    83  64  52 N5        30.13F
NASHVILLE      MOSUNNY   88  63  43 VRB3      30.06F
$$

...KEY TO REMARKS...
VSB - VISIBILITY IN MILES
WCI - WIND CHILL INDEX
HX  - HEAT INDEX

$$




USA.gov is the U.S. government's official web portal to all federal, state and local government web resources and services.